Regional Weather Roundup
Issued by NWS

Home | Current Version | Previous Version | Graphics & Text | Print | Product List | Glossary On
Versions: 1 2 3 4 5 6 7 8 9 10 11 12 13 14 15 16 17 18 19 20 21 22 23 24 25 26 27 28 29 30 31 32 33 34 35 36 37 38 39 40 41 42 43 44 45 46 47 48 49 50
000
ASUS43 KIND 231310
RWRIN

WEATHER ROUNDUP FOR INDIANA
NATIONAL WEATHER SERVICE INDIANAPOLIS IN
900 AM EDT MON MAY 23 2022

NOTE: "FAIR" INDICATES FEW OR NO CLOUDS BELOW 12,000 FEET WITH NO
SIGNIFICANT WEATHER AND/OR OBSTRUCTIONS TO VISIBILITY.

* - STATION DOES NOT REPORT WEATHER SUCH AS PRECIPITATION OR FOG.

+ - STATION NOT QUALITY CONTROLLED BY THE NATIONAL WEATHER SERVICE.
    USE DATA WITH CAUTION...ESPECIALLY DEWPOINT AND RELATIVE
    HUMIDITY OBSERVATIONS.

INZ001>003-010>013-019-020-231400-
NORTHWEST INDIANA

CITY           SKY/WX    TMP DP  RH WIND       PRES   REMARKS
GARY /AIRPORT/ SUNNY     54  39  58 N10       30.38S
KNOX *+        MOSUNNY   50  41  71 NE8       30.37S
LA PORTE +     MOSUNNY   51  40  65 NE9       30.38S
MICHIGAN CITY+ SUNNY     50  41  71 NE6       30.39S
MONTICELLO +   MOSUNNY   51  37  59 NE8       30.36R
VALPARAISO     SUNNY     52  38  58 NE12      30.37S

$$

LMZ046-743>745-231400-
SOUTHERN LAKE MICHIGAN

STATION/POSITION TIME  TEMP WIND        PRES
                       AIR  DIR/SP/G
                 (UTC) (F)  (DEG/KT/KT) (MB)
BURNS HARBOR     1240   52   60/  7/  9 1028.8R
MICHIGAN CITY    1240   51   60/ 15/ 17   N/A
5NW MICH CITY    1240   52   20/ 17/ 21   N/A

$$

INZ004-005-014>016-021>024-231400-
NORTH CENTRAL INDIANA

CITY           SKY/WX    TMP DP  RH WIND       PRES   REMARKS
ELKHART        SUNNY     50  39  66 NE7       30.39S
GOSHEN         MOSUNNY   49  40  71 NE10      30.37R
LOGANSPORT +   MOSUNNY   50  14  23 NE7       30.36S
PERU/GRISSOM   MOSUNNY   51  39  63 NE10      30.34S
ROCHESTER +    MOSUNNY   50  41  71 CALM      30.37R
SOUTH BEND     MOSUNNY   51  40  65 NE10      30.38S
WARSAW +       MOSUNNY   48  39  71 NE8       30.37R

$$

INZ006>009-017-018-025>027-231400-
NORTHEAST INDIANA

CITY           SKY/WX    TMP DP  RH WIND       PRES   REMARKS
ANGOLA *+      MOSUNNY   50  41  71 NE7G14    30.35S
AUBURN +       SUNNY     50  41  71 NE6       30.36S
FORT WAYNE     PTSUNNY   53  39  59 N9        30.36R
HUNTINGTON +   SUNNY     52  37  57 NE8       30.35S
KENDALLVILLE + FAIR      49  42  74 NE9       30.36S

$$

INZ028-029-035-036-043>045-051>053-231400-
WEST CENTRAL INDIANA

CITY           SKY/WX    TMP DP  RH WIND       PRES   REMARKS
CRAWFORDSVL +  MOSUNNY   50  25  37 NE13      30.33S
LAFAYETTE      MOSUNNY   51  40  65 NE12      30.35R
TERRE HAUTE    MOSUNNY   54  38  54 E12       30.31F

$$

INZ030>032-037>040-046>048-054>057-064-065-231400-
CENTRAL INDIANA

CITY           SKY/WX    TMP DP  RH WIND       PRES   REMARKS
ANDERSON       SUNNY     52  36  53 NE10      30.34S
FISHERS *+     SUNNY     54  41  62 NE9       30.34S
FRANKFORT +    MOSUNNY   52  37  58 NE10G17   30.33S
GREENWOOD *+   SUNNY     53  40  61 NE9       30.33S
INDIANAPOLIS   PTSUNNY   53  36  52 NE17G25   30.32S
-EAGLE CREEK   SUNNY     54  37  52 NE12G17   30.32S
KOKOMO +       SUNNY     53  40  61 NE10      30.36R
MT COMFORT *+  SUNNY     52  39  62 NE13      30.33S
SHELBYVILLE    SUNNY     55  40  56 NE9       30.31S
ZIONSVILLE +     N/A     52  38  59 NE5       30.34S

$$

INZ033-034-041-042-049-050-058-059-231400-
EAST CENTRAL INDIANA

CITY           SKY/WX    TMP DP  RH WIND       PRES   REMARKS
MUNCIE         SUNNY     53  37  54 NE14      30.33S

$$

INZ060-061-067>069-081>083-085>088-231400-
SOUTHWEST INDIANA

CITY           SKY/WX    TMP DP  RH WIND       PRES   REMARKS
EVANSVILLE     CLOUDY    57  38  48 NE12      30.26S
HUNTINGBURG *+ CLOUDY    55  37  50 NE12      30.27R
WASHINGTON +   CLOUDY    55  38  53 NE7       30.29S

$$

INZ062-063-066-070>080-084-089>092-231400-
SOUTH CENTRAL AND SOUTHEAST INDIANA

CITY           SKY/WX    TMP DP  RH WIND       PRES   REMARKS
BLOOMINGTON    MOSUNNY   54  35  48 NE10G20   30.30S
MADISON *+     CLOUDY    52  39  62 NE7       30.30S

$$




USA.gov is the U.S. government's official web portal to all federal, state and local government web resources and services.